Weather History for KRXE - October, 2010

Change the Weather History Date:

Sunday, October 10, 2010

  Actual Average Record
Temperature  
Mean Temperature 48 °F 47 °F  
Max Temperature 60 °F 61 °F 74 °F (1999)
Min Temperature 36 °F 33 °F 20 °F (2009)
Degree Days  
Heating Degree Days 17 18  
Month to date heating degree days 83 165  
Since 1 July heating degree days 378 523  
Cooling Degree Days 0 0  
Month to date cooling degree days 0 0  
Year to date cooling degree days 175 208  
Moisture  
Dew Point 42 °F    
Average Humidity 79    
Maximum Humidity 100    
Minimum Humidity 57    
Precipitation  
Precipitation 0.00 in 0.03 in - ()
Month to date precipitation 0.25 0.34  
Year to date precipitation 9.50 10.22  
Sea Level Pressure  
Sea Level Pressure 30.26 in    
Wind  
Wind Speed 3 mph (NE)    
Max Wind Speed 9 mph    
Max Gust Speed 13 mph    
Visibility 10 miles    
Events      
T = Trace of Precipitation, MM = Missing Value Source: NWS Daily Summary

Daily Weather History Graph

Daily Weather History Graph

Search for Another Location

Airport or City:

Trip Planner

Search our weather history database for the weather conditions in past years. The results will help you decide how hot, cold, wet, or windy it might be!

Date:

Astronomy

Oct. 10, 2010 Rise Set
Actual Time 7:35 AM MDT 6:52 PM MDT
Civil Twilight 7:06 AM MDT 7:20 PM MDT
Nautical Twilight 6:33 AM MDT 7:54 PM MDT
Astronomical Twilight 5:59 AM MDT 8:27 PM MDT
Moon 11:21 AM MDT (10/10) 8:28 PM MDT (10/10)
Length of Visible Light 12h 14m
Length of Day
11h 16m
Waxing Crescent, 12% of the Moon is Illuminated
Oct 10
Waxing Crescent
Oct 14
First Quarter
Oct 22
Full
Oct 30
Last Quarter
Nov 5
New

Hourly Weather History & Observations

Time (MDT) Temp. Windchill Dew Point Humidity Pressure Visibility Wind Dir Wind Speed Gust Speed Precip Events Conditions
12:53 AM 41.0 °F 39.0 °F 39.0 °F 93% 30.36 in 10.0 mi NE 3.5 mph - N/A   Clear
1:53 AM 39.9 °F 37.8 °F 37.9 °F 93% 30.36 in 10.0 mi North 3.5 mph - N/A   Clear
2:53 AM 39.0 °F 36.8 °F 37.0 °F 93% 30.36 in 10.0 mi NE 3.5 mph - N/A   Clear
3:53 AM 37.9 °F - 37.0 °F 97% 30.35 in 10.0 mi Calm Calm - N/A   Clear
4:53 AM 37.0 °F - 36.0 °F 96% 30.33 in 10.0 mi Calm Calm - N/A   Clear
5:53 AM 36.0 °F 33.3 °F 35.1 °F 97% 30.34 in 10.0 mi NNE 3.5 mph - N/A   Clear
6:53 AM 36.0 °F - 36.0 °F 100% 30.34 in 10.0 mi Calm Calm - N/A   Overcast
7:53 AM 37.9 °F - 37.0 °F 97% 30.35 in 10.0 mi Calm Calm - N/A   Overcast
8:53 AM 39.9 °F 37.8 °F 37.9 °F 93% 30.35 in 10.0 mi NNE 3.5 mph - N/A   Overcast
9:53 AM 43.0 °F - 39.9 °F 89% 30.34 in 10.0 mi Calm Calm - N/A   Overcast
10:53 AM 48.0 °F - 43.0 °F 83% 30.33 in 10.0 mi Variable 3.5 mph - N/A   Overcast
11:53 AM 53.1 °F - 42.1 °F 66% 30.30 in 10.0 mi South 8.1 mph - N/A   Overcast
12:53 PM 55.0 °F - 43.0 °F 64% 30.29 in 10.0 mi WSW 6.9 mph - N/A   Overcast
1:53 PM 54.0 °F - 44.1 °F 69% 30.26 in 10.0 mi WSW 5.8 mph - N/A   Overcast
2:53 PM 55.9 °F - 44.1 °F 64% 30.22 in 10.0 mi SW 3.5 mph - N/A   Overcast
3:53 PM 57.9 °F - 45.0 °F 62% 30.20 in 10.0 mi SW 5.8 mph - N/A   Overcast
4:53 PM 57.9 °F - 44.1 °F 60% 30.19 in 10.0 mi Calm Calm - N/A   Overcast
5:53 PM 59.0 °F - 45.0 °F 60% 30.17 in 10.0 mi Calm Calm - N/A   Overcast
6:53 PM 55.9 °F - 46.0 °F 69% 30.17 in 10.0 mi ENE 5.8 mph - N/A   Overcast
7:53 PM 55.0 °F - 46.0 °F 72% 30.17 in 10.0 mi ENE 3.5 mph - N/A   Overcast
8:53 PM 53.1 °F - 46.9 °F 80% 30.16 in 10.0 mi ENE 4.6 mph - N/A   Overcast
9:53 PM 52.0 °F - 46.9 °F 83% 30.14 in 10.0 mi ENE 3.5 mph - N/A   Scattered Clouds
10:53 PM 48.9 °F - 46.0 °F 90% 30.13 in 10.0 mi NE 5.8 mph - N/A   Partly Cloudy
11:53 PM 46.9 °F - 44.1 °F 90% 30.12 in 10.0 mi NE 3.5 mph - N/A   Partly Cloudy